| time (UTC) | temp F | wind direction | speed knots | gust knots | rain 1hr in | rain 24hr in | rain mn in | humidity % | barometer mb |
| 20260505004559 | 57 | 325 | 0.0 | 0.0 | 0.00 | 0.00 | 0.00 | 51 | 1000.7 |
| 20260505003057 | 58 | 4 | 0.0 | 1.7 | 0.00 | 0.00 | 0.00 | 51 | 1000.6 |
| 20260505001551 | 59 | 88 | 0.0 | 2.6 | 0.00 | 0.00 | 0.00 | 50 | 1000.6 |
| 20260505000048 | 58 | 105 | 0.0 | 0.0 | 0.00 | 0.00 | 0.00 | 52 | 1000.4 |
| 20260504234542 | 57 | 318 | 0.0 | 0.0 | 0.00 | 0.00 | 0.00 | 55 | 1000.4 |
| 20260504233039 | 57 | 318 | 0.0 | 0.0 | 0.00 | 0.00 | 0.00 | 54 | 1000.4 |
| 20260504231532 | 57 | 294 | 0.0 | 0.0 | 0.00 | 0.00 | 0.00 | 57 | 1000.2 |
| 20260504230038 | 56 | 169 | 0.0 | 0.9 | 0.00 | 0.00 | 0.00 | 60 | 1000.0 |
| 20260504224524 | 55 | 298 | 0.0 | 5.2 | 0.00 | 0.00 | 0.00 | 59 | 1000.4 |
| 20260504223019 | 60 | 258 | 2.6 | 6.1 | 0.00 | 0.00 | 0.00 | 40 | 1000.5 |
| 20260504221535 | 60 | 318 | 0.9 | 4.3 | 0.00 | 0.00 | 0.00 | 40 | 1000.5 |
| 20260504220010 | 60 | 336 | 0.0 | 1.7 | 0.00 | 0.00 | 0.00 | 41 | 999.3 |
| 20260504214506 | 60 | 27 | 2.6 | 5.2 | 0.00 | 0.00 | 0.00 | 42 | 998.7 |
| 20260504213001 | 61 | 18 | 0.9 | 6.1 | 0.00 | 0.00 | 0.00 | 40 | 999.0 |
| 20260504211557 | 63 | 348 | 1.7 | 7.8 | 0.00 | 0.00 | 0.00 | 36 | 998.9 |
| 20260504210053 | 63 | 319 | 1.7 | 7.0 | 0.00 | 0.00 | 0.00 | 34 | 998.9 |
| 20260504204553 | 66 | 27 | 2.6 | 8.7 | 0.00 | 0.00 | 0.00 | 28 | 998.9 |
| 20260504203049 | 68 | 103 | 2.6 | 8.7 | 0.00 | 0.00 | 0.00 | 27 | 998.0 |
| 20260504201540 | 67 | 187 | 0.9 | 4.3 | 0.00 | 0.00 | 0.00 | 25 | 998.1 |
| 20260504200034 | 67 | 252 | 0.9 | 7.0 | 0.00 | 0.00 | 0.00 | 26 | 998.2 |
| 20260504194539 | 68 | 276 | 1.7 | 5.2 | 0.00 | 0.00 | 0.00 | 24 | 998.2 |
| 20260504193030 | 68 | 285 | 0.9 | 12.2 | 0.00 | 0.00 | 0.00 | 22 | 998.1 |
| 20260504191535 | 69 | 249 | 1.7 | 5.2 | 0.00 | 0.00 | 0.00 | 22 | 997.9 |
| 20260504190021 | 69 | 252 | 0.9 | 4.3 | 0.00 | 0.00 | 0.00 | 23 | 998.0 |
| 20260504184519 | 69 | 136 | 1.7 | 6.1 | 0.00 | 0.00 | 0.00 | 22 | 998.1 |
| 20260504183012 | 68 | 272 | 0.9 | 7.0 | 0.00 | 0.00 | 0.00 | 23 | 998.4 |
| 20260504181514 | 68 | 236 | 2.6 | 6.1 | 0.00 | 0.00 | 0.00 | 24 | 998.7 |
| 20260504180004 | 67 | 287 | 0.9 | 7.0 | 0.00 | 0.00 | 0.00 | 25 | 999.1 |
| 20260504174558 | 67 | 281 | 1.7 | 7.0 | 0.00 | 0.00 | 0.00 | 25 | 999.6 |
| 20260504173054 | 66 | 283 | 1.7 | 7.0 | 0.00 | 0.00 | 0.00 | 27 | 1000.0 |
| 20260504171554 | 65 | 264 | 1.7 | 5.2 | 0.00 | 0.00 | 0.00 | 27 | 1000.2 |
| 20260504081528 | 55 | 281 | 1.7 | 4.3 | 0.00 | 0.00 | 0.00 | 28 | 1001.7 |
| 20260504044542 | 62 | 269 | 2.6 | 8.7 | 0.00 | 0.00 | 0.00 | 24 | 1002.5 |
| 20260504043037 | 62 | 238 | 0.9 | 7.0 | 0.00 | 0.00 | 0.00 | 24 | 1002.4 |
| 20260504041531 | 63 | 212 | 1.7 | 5.2 | 0.00 | 0.00 | 0.00 | 25 | 1002.5 |
| 20260504040043 | 63 | 213 | 1.7 | 7.0 | 0.00 | 0.00 | 0.00 | 25 | 1002.6 |
| 20260504034524 | 63 | 221 | 2.6 | 7.0 | 0.00 | 0.00 | 0.00 | 25 | 1002.8 |
| 20260504033022 | 63 | 300 | 1.7 | 8.7 | 0.00 | 0.00 | 0.00 | 25 | 1002.7 |
| 20260504031515 | 63 | 243 | 1.7 | 7.0 | 0.00 | 0.00 | 0.00 | 25 | 1002.7 |
| 20260504030010 | 63 | 274 | 2.6 | 7.0 | 0.00 | 0.00 | 0.00 | 25 | 1002.6 |
| 20260504024504 | 64 | 231 | 0.0 | 5.2 | 0.00 | 0.00 | 0.00 | 24 | 1002.5 |
| 20260504023001 | 65 | 225 | 0.0 | 3.5 | 0.00 | 0.00 | 0.00 | 23 | 1002.3 |
| 20260504021557 | 65 | 176 | 0.0 | 5.2 | 0.00 | 0.00 | 0.00 | 23 | 1002.2 |
| 20260504020052 | 65 | 322 | 0.0 | 4.3 | 0.00 | 0.00 | 0.00 | 22 | 1002.0 |
| 20260504014559 | 65 | 230 | 0.0 | 3.5 | 0.00 | 0.00 | 0.00 | 22 | 1001.8 |
| 20260504013043 | 66 | 165 | 0.9 | 5.2 | 0.00 | 0.00 | 0.00 | 22 | 1001.6 |
| 20260504011541 | 66 | 333 | 0.0 | 0.9 | 0.00 | 0.00 | 0.00 | 22 | 1001.6 |
| 20260504010034 | 66 | 323 | 0.0 | 10.4 | 0.00 | 0.00 | 0.00 | 21 | 1001.8 |